[[{"header":{"parameterUnit":"m.s-1","parameterCategory":1,"la1":30.2991,"la2":30.254,"lo1":-89.0895,"lo2":-89.0444,"dy":0.0017,"dx":0.0017,"nx":28,"ny":28,"refTime":"2025-01-30T09:00:00:Z","depth":0,"parameterNumber":2,"parameterNumberName":"U-component_of_WINDS"},"data":[0,0,0,0,0,0,0,0,0,0,0,0,0,0,0,0,0,0,0,0,0,0,0,0,0,0,0,0,0,0,0,0,0,0,0,0,0,0,0,0,0,0,0,0,0,0,0,0,0,0,0,0,0,0,0,0,0,0,3.5456,3.5455,0,3.5378,3.5377,3.5376,3.5306,3.5305,3.5304,3.5303,3.522,3.5219,3.5217,0,0,0,0,0,0,0,0,0,0,0,0,0,3.5541,3.554,3.5456,3.5455,3.5454,3.5378,3.5377,3.5376,3.5306,3.5305,3.5304,3.5303,3.5221,3.5219,3.5217,0,0,0,0,0,0,0,0,0,0,0,0,0,3.5488,3.554,3.5456,3.541,3.5405,3.5378,3.5377,3.5375,3.5306,3.5305,3.5303,3.5302,3.5221,3.5219,3.5217,3.5228,0,0,3.521,3.5209,0,0,0,0,0,0,0,0,3.5491,3.5485,3.5418,3.5413,3.5407,3.535,3.5376,3.5326,3.5306,3.5343,3.5303,3.5302,3.5264,3.5258,3.5246,3.5224,3.5221,3.521,3.5209,3.5208,3.5207,0,0,0,0,0,0,0,3.5495,3.5488,3.5425,3.5417,3.5411,3.5392,3.5383,3.5366,3.5312,3.534,3.5335,3.5327,3.5261,3.5249,3.5244,3.522,3.521,3.5208,3.5207,3.5206,3.5202,3.5203,0,0,0,0,0,0,3.5506,3.5491,3.5427,3.5422,3.5447,3.5392,3.5381,3.537,3.5312,3.5302,3.5328,3.5324,3.5253,3.5246,3.5241,3.5249,3.5208,3.5206,3.5205,3.5201,3.5202,3.5204,0,0,0,0,0,0,3.5508,3.5501,3.543,3.5455,3.5445,3.5391,3.5379,3.5369,3.5356,3.5302,3.5292,3.5325,3.5252,3.5244,3.5232,3.5245,3.5205,3.5203,3.52,3.5201,3.5203,3.5268,0,0,0,0,0,0,3.5511,3.5502,3.5507,3.5456,3.5444,3.5424,3.538,3.5368,3.5353,3.5347,3.5297,3.5288,3.525,3.5236,3.523,3.5242,3.5201,3.5198,3.52,3.5203,3.5264,3.5271,3.5278,0,0,0,0,0,3.5514,3.5527,3.5507,3.55,3.5449,3.5425,3.5418,3.5375,3.5355,3.5358,3.5323,3.5289,3.5245,3.5235,3.5228,3.5239,3.5197,3.52,3.5202,3.5261,3.527,3.5278,0,0,0,0,0,0,3.558,3.552,3.5497,3.5494,3.5466,3.5413,3.5416,3.5386,3.5362,3.5357,3.5304,3.5293,3.5287,3.5262,3.5252,3.5247,3.5216,3.5218,3.5263,3.5272,3.5278,3.5284,3.5199,0,0,0,0,0,3.5594,3.5581,3.5529,3.5532,3.5519,3.5471,3.5459,3.5428,3.5396,3.5383,3.5347,3.5316,3.5295,3.5282,3.526,3.5261,3.5248,3.5265,3.5272,3.5278,3.5279,3.5276,3.5283,3.5213,3.5213,3.5213,0,0,3.5623,3.5589,3.5584,3.5544,3.5518,3.5505,3.546,3.5448,3.5437,3.538,3.5367,3.534,3.5302,3.5296,3.5292,3.5275,3.5296,3.5281,3.5286,3.5284,3.528,3.5287,3.5293,3.5214,3.5214,3.5214,0,0,3.5669,3.5643,3.5642,3.5617,3.5579,3.5546,3.5546,3.5499,3.5479,3.5465,3.5422,3.5408,3.5373,3.5347,3.533,3.5367,3.5334,3.5361,3.5396,3.5394,3.54,3.5404,3.5416,3.5421,3.5363,3.5363,3.5363,0,3.571,3.5689,3.5645,3.5635,3.5618,3.5568,3.5566,3.5543,3.55,3.5489,3.5471,3.5426,3.5397,3.5384,3.5393,3.5381,3.5378,3.5365,3.5403,3.5407,3.541,3.5421,3.5426,3.5366,3.5366,3.5365,3.5365,0,3.574,3.5726,3.573,3.569,3.5674,3.5668,3.5622,3.5611,3.5582,3.5552,3.5538,3.5501,3.547,3.5465,3.5437,3.5448,3.5439,3.5413,3.5381,3.5421,3.543,3.5434,3.5371,3.537,3.5369,3.5368,0,0,3.5824,3.576,3.5762,3.5743,3.5697,3.5685,3.5677,3.5648,3.5638,3.561,3.5601,3.5573,3.5548,3.5529,3.5497,3.5495,3.5525,3.5469,3.5467,3.548,3.5534,3.5553,3.5559,3.5504,3.5505,3.5505,3.5537,0,3.5861,3.5844,3.5804,3.5799,3.5785,3.5737,3.573,3.57,3.5672,3.5655,3.5622,3.5603,3.5573,3.5561,3.5557,3.5523,3.5535,3.552,3.5493,3.5493,3.5503,3.5563,3.5583,3.5615,3.554,3.5541,3.5541,0,3.5902,3.5877,3.5871,3.5826,3.5818,3.5813,3.5782,3.5767,3.5733,3.5712,3.569,3.5656,3.5643,3.5615,3.5596,3.5586,3.5573,3.5555,3.5555,3.5549,3.5519,3.5558,3.5624,3.5628,3.5547,3.5546,3.5546,0,3.5962,3.5928,3.5919,3.5904,3.5852,3.5849,3.5826,3.5791,3.5776,3.5749,3.5738,3.5711,3.5695,3.5674,3.5632,3.5616,3.5617,3.5586,3.5598,3.5599,3.5599,3.56,3.5662,3.5594,3.5594,3.5594,3.5594,0,3.6007,3.6004,3.5945,3.594,3.5935,3.589,3.5886,3.586,3.5828,3.5816,3.5773,3.5762,3.5709,3.5691,3.5659,3.5647,3.5641,3.5622,3.5613,3.5625,3.5628,3.5615,3.5611,3.5595,3.5595,3.5595,3.5594,0,3.6072,3.6033,3.602,3.5972,3.596,3.5959,3.5917,3.5909,3.5878,3.5863,3.5857,3.5809,3.5786,3.5743,3.5708,3.5686,3.5681,3.5666,3.5693,3.5687,3.5701,3.57,3.5756,3.5761,3.5692,3.5693,3.5693,0,3.6103,3.61,3.6052,3.6041,3.6021,3.6004,3.5988,3.5943,3.5929,3.5889,3.5886,3.5861,3.5837,3.5803,3.5764,3.5737,3.572,3.5742,3.5716,3.5728,3.5719,3.5719,3.5717,3.5747,3.5748,3.5749,3.575,0,3.616,3.6141,3.6121,3.6094,3.6077,3.6054,3.6028,3.6022,3.597,3.5956,3.5933,3.5915,3.588,3.5854,3.5822,3.5797,3.5765,3.5759,3.576,3.5771,3.5786,3.5777,3.5707,3.5757,3.5757,3.5756,3.5756,3.5755,3.6207,3.6202,3.6168,3.6147,3.6123,3.61,3.609,3.6059,3.6039,3.6008,3.5982,3.5961,3.5926,3.5879,3.5857,3.5839,3.5823,3.5825,3.5825,3.5826,3.583,3.5791,3.5833,3.5832,3.5832,3.5832,3.5832,0,3.6261,3.6237,3.6218,3.6184,3.6167,3.614,3.611,3.6098,3.608,3.6051,3.6029,3.6002,3.5977,3.5937,3.5908,3.5901,3.5886,3.5895,3.5894,3.5889,3.5846,3.5848,3.5908,3.5908,3.5908,3.5908,3.5908,3.5908,3.6287,3.6277,3.6254,3.6231,3.6206,3.6186,3.6171,3.6149,3.6125,3.6098,3.6077,3.6052,3.6017,3.5986,3.5962,3.595,3.5941,3.5955,3.5939,3.5899,3.5892,3.5885,3.5886,3.5954,3.5954,3.5982,3.5983,3.5983]},{"header":{"parameterUnit":"m.s-1","parameterCategory":1,"la1":30.2991,"la2":30.254,"lo1":-89.0895,"lo2":-89.0444,"dy":0.0017,"dx":0.0017,"nx":28,"ny":28,"refTime":"2025-01-30T09:00:00:Z","depth":0,"parameterNumber":3,"parameterNumberName":"V-component_of_WINDS"},"data":[0,0,0,0,0,0,0,0,0,0,0,0,0,0,0,0,0,0,0,0,0,0,0,0,0,0,0,0,0,0,0,0,0,0,0,0,0,0,0,0,0,0,0,0,0,0,0,0,0,0,0,0,0,0,0,0,0,0,0.5655,0.5656,0,0.5783,0.5784,0.5786,0.5823,0.5822,0.5822,0.5821,0.5952,0.5956,0.5961,0,0,0,0,0,0,0,0,0,0,0,0,0,0.5443,0.5447,0.5655,0.5656,0.5658,0.5782,0.5784,0.5786,0.5823,0.5822,0.5821,0.5821,0.5951,0.5956,0.5961,0,0,0,0,0,0,0,0,0,0,0,0,0,0.5549,0.5448,0.5654,0.5691,0.5696,0.5782,0.5784,0.5786,0.5823,0.5822,0.5821,0.582,0.5949,0.5956,0.5962,0.602,0,0,0.5981,0.5983,0,0,0,0,0,0,0,0,0.5543,0.5557,0.5684,0.5689,0.5694,0.5786,0.5758,0.5865,0.5823,0.5775,0.5821,0.582,0.5898,0.5908,0.5934,0.6026,0.6032,0.5981,0.5985,0.5988,0.5989,0,0,0,0,0,0,0,0.5536,0.5552,0.5705,0.5686,0.5692,0.5702,0.5716,0.5778,0.5841,0.5779,0.5782,0.5797,0.59,0.5928,0.5938,0.6034,0.5981,0.5986,0.599,0.5993,0.618,0.6181,0,0,0,0,0,0,0.5522,0.5545,0.5701,0.5709,0.5615,0.5706,0.5722,0.5757,0.584,0.5852,0.5797,0.5798,0.5918,0.5931,0.5943,0.6017,0.5987,0.5993,0.5997,0.6179,0.6181,0.6182,0,0,0,0,0,0,0.5517,0.5536,0.5696,0.5628,0.5649,0.5711,0.5751,0.5761,0.5789,0.5854,0.5865,0.5815,0.5918,0.5934,0.6001,0.6022,0.5996,0.6002,0.6178,0.6179,0.6181,0.6166,0,0,0,0,0,0,0.5511,0.5534,0.5557,0.5628,0.5653,0.5752,0.5752,0.5764,0.5799,0.5801,0.5873,0.5884,0.5918,0.5991,0.6007,0.603,0.6007,0.6176,0.6178,0.6181,0.6165,0.6167,0.6169,0,0,0,0,0,0.5504,0.5547,0.5558,0.5576,0.5683,0.5753,0.5767,0.5806,0.5801,0.5824,0.5866,0.5882,0.6017,0.5998,0.6016,0.6041,0.6175,0.6178,0.618,0.6164,0.6167,0.6169,0,0,0,0,0,0,0.5477,0.5558,0.557,0.5638,0.5688,0.5759,0.579,0.5807,0.586,0.586,0.5906,0.5922,0.5985,0.602,0.5997,0.6102,0.6096,0.6103,0.6077,0.6081,0.6083,0.6074,0.6012,0,0,0,0,0,0.5479,0.5529,0.5597,0.5651,0.5675,0.5728,0.576,0.5786,0.584,0.5861,0.5908,0.596,0.6014,0.6049,0.6103,0.6169,0.6186,0.6196,0.6198,0.6199,0.6205,0.6243,0.6248,0.6191,0.6191,0.6191,0,0,0.5484,0.5534,0.5563,0.5647,0.5689,0.574,0.5746,0.58,0.5839,0.587,0.5936,0.5971,0.6033,0.6099,0.6131,0.613,0.6224,0.6203,0.6203,0.6208,0.6246,0.6251,0.6256,0.6193,0.6193,0.6193,0,0,0.5519,0.5562,0.5612,0.5654,0.5717,0.5752,0.5763,0.5832,0.5857,0.5923,0.5948,0.5994,0.6086,0.6129,0.6163,0.6213,0.6229,0.6229,0.624,0.6277,0.6281,0.6286,0.6304,0.631,0.6234,0.6234,0.6234,0,0.5518,0.5596,0.5635,0.5688,0.5724,0.5754,0.5805,0.5843,0.5921,0.5945,0.5942,0.6059,0.6102,0.6179,0.6191,0.6218,0.6233,0.6222,0.6277,0.6282,0.6287,0.6305,0.6312,0.6234,0.6234,0.6234,0.6234,0,0.5591,0.5645,0.5677,0.5751,0.5791,0.5842,0.5889,0.5924,0.5946,0.5981,0.6048,0.6101,0.6166,0.6185,0.6207,0.6266,0.6263,0.6268,0.6264,0.6291,0.6309,0.6316,0.6233,0.6233,0.6233,0.6233,0,0,0.5615,0.5709,0.572,0.5754,0.5826,0.5868,0.592,0.5983,0.6013,0.6065,0.6111,0.6188,0.6193,0.6231,0.6257,0.6289,0.6326,0.6291,0.6293,0.6296,0.6395,0.6391,0.6399,0.6337,0.6338,0.6339,0.639,0,0.566,0.5755,0.5792,0.5869,0.592,0.5948,0.5994,0.6043,0.6076,0.6124,0.6161,0.6215,0.6218,0.6241,0.6273,0.6315,0.6347,0.6311,0.638,0.6382,0.6365,0.6408,0.6405,0.645,0.6397,0.6398,0.6399,0,0.5726,0.5778,0.5861,0.5926,0.5948,0.5989,0.605,0.6094,0.615,0.6172,0.6214,0.6239,0.6295,0.6285,0.6364,0.6339,0.6369,0.6393,0.6396,0.6405,0.6393,0.6419,0.6465,0.6472,0.6411,0.641,0.6409,0,0.5735,0.5827,0.5888,0.5916,0.5993,0.6021,0.6055,0.6109,0.6145,0.6198,0.6221,0.6279,0.6312,0.6356,0.6396,0.6385,0.647,0.6464,0.6491,0.649,0.6509,0.6507,0.6561,0.6526,0.6526,0.6526,0.6526,0,0.5783,0.5833,0.5894,0.5932,0.5988,0.6029,0.6084,0.6119,0.6167,0.6213,0.624,0.6282,0.6331,0.6379,0.641,0.647,0.6484,0.6504,0.6512,0.6503,0.65,0.6524,0.6522,0.6528,0.6527,0.6527,0.6527,0,0.5804,0.5847,0.5916,0.5983,0.6001,0.604,0.6097,0.6135,0.617,0.6227,0.6242,0.6297,0.6355,0.6398,0.6473,0.6494,0.6558,0.6566,0.6539,0.6544,0.6568,0.6566,0.6641,0.6653,0.6608,0.6608,0.6609,0,0.5832,0.5871,0.5942,0.5974,0.6008,0.6059,0.6095,0.6137,0.6173,0.6239,0.6269,0.6329,0.6379,0.6471,0.6517,0.6574,0.6584,0.6606,0.6593,0.6582,0.6586,0.6583,0.6588,0.6609,0.6609,0.6609,0.6609,0,0.5877,0.5896,0.5947,0.6006,0.6048,0.6096,0.6145,0.6169,0.622,0.6259,0.6319,0.6358,0.6434,0.6493,0.6555,0.659,0.6608,0.6613,0.6622,0.6614,0.6597,0.6607,0.6546,0.6611,0.6611,0.6611,0.6611,0.6611,0.5904,0.594,0.5995,0.6051,0.6092,0.6136,0.6175,0.6214,0.6265,0.633,0.6351,0.6413,0.6467,0.6552,0.6587,0.6636,0.6636,0.665,0.6653,0.6656,0.6656,0.6588,0.6648,0.6648,0.6648,0.6648,0.6648,0,0.5951,0.5988,0.6039,0.6106,0.615,0.6162,0.6216,0.6252,0.6306,0.6355,0.6404,0.6472,0.6529,0.658,0.6639,0.6669,0.6679,0.6683,0.6682,0.669,0.6652,0.6639,0.6674,0.6674,0.6674,0.6674,0.6674,0.6674,0.5981,0.6043,0.6068,0.615,0.6187,0.6247,0.6277,0.6318,0.6358,0.6433,0.6481,0.6513,0.6562,0.6626,0.6679,0.6692,0.6713,0.6715,0.6731,0.6695,0.6692,0.6689,0.6677,0.6719,0.6719,0.6764,0.6765,0.6765]}]]